Regional Weather Roundup
Issued by NWS

Home | Current Version | Previous Version | Graphics & Text | Print | Product List | Glossary On
Versions: 1 2 3 4 5 6 7 8 9 10 11 12 13 14 15 16 17 18 19 20 21 22 23 24 25 26 27 28 29 30 31 32 33 34 35 36 37 38 39 40 41 42 43 44 45 46 47 48
000
ASUS45 KBOU 230307
RWRCO

WEATHER ROUNDUP FOR COLORADO
NATIONAL WEATHER SERVICE DENVER/BOULDER CO
900 PM MDT TUE JUL 22 2014

NOTE: "FAIR" INDICATES FEW OR NO CLOUDS BELOW 12000 FEET WITH NO
SIGNIFICANT WEATHER AND/OR OBSTRUCTIONS TO VISIBILITY.

COZ001>005-013-030-031-230400-
...NORTHWEST COLORADO...

CITY           SKY/WX    TMP DP  RH WIND       PRES   REMARKS
CRAIG          CLEAR     69  43  38 CALM      30.30S
HAYDEN         CLEAR     75  36  23 SE8       30.34S
MEEKER         CLEAR     80  30  16 E9        30.31R
MOUNT WERNER   NOT AVBL
STEAMBOAT SPGS CLEAR     73  40  30 CALM      30.37S
WALDEN         CLEAR     64  36  34 NE7       30.50S
$$

COZ006>008-011-230400-
...WEST CENTRAL VALLEYS...

CITY           SKY/WX    TMP DP  RH WIND       PRES   REMARKS
GRAND JUNCTION CLEAR     86  22   9 N6        30.13S
MONTROSE       PTCLDY    82  43  25 S7        30.24R
EAGLE          CLEAR     81  34  18 SE3       30.35R
RIFLE          CLEAR     83  22  10 E3        30.21R
DELTA          PTCLDY    89  28  11 CALM      30.16S
NUCLA          PTCLDY    84  19   9 E5        30.26S
$$

COZ017>023-064>068-230400-
...SOUTHWEST COLORADO...

CITY           SKY/WX    TMP DP  RH WIND       PRES   REMARKS
DURANGO        MOCLDY    85  32  15 CALM      30.36R
CORTEZ         CLEAR     79  31  17 S7        30.24R
PAGOSA SPRINGS MOCLDY    78  34  20 W5        30.48R
TELLURIDE      PTCLDY    73  30  20 SE5       30.55S
WOLF CREEK PAS NOT AVBL
$$

COZ009-010-012-014-032>034-037-058>063-230400-
...CENTRAL COLORADO...

CITY           SKY/WX    TMP DP  RH WIND       PRES   REMARKS
ASPEN          PTCLDY    70  35  27 SW5       30.44R
BUENA VISTA    PTCLDY    70  37  30 NE23G30   30.56R
COPPER MTN     PTCLDY    61  32  33 SE7G21    30.87R
BERTHOUD PASS  MOCLDY    50  36  57 E24       30.93S
COTTONWOOD PAS MOCLDY    64  34  32 CALM      30.73R
GUNNISON       PTCLDY    70  36  28 N7        30.46R
KREMMLING      CLEAR     70  28  21 E6        30.45R
LEADVILLE      PTCLDY    63  35  35 E13G23    30.67R
MONARCH PASS   MOCLDY    57  37  47 E18       30.96R
SALIDA         MOCLDY    80  41  25 SE15G22   30.53R
SUNLIGHT       CLEAR     70  19  14 NW5       30.74S
WILKERSON PASS CLOUDY    55  32  41 N13G32    30.86R
$$

COZ069>075-230400-
...SAN LUIS VALLEY/SANGRE DE CRISTO MOUNTAINS...

CITY           SKY/WX    TMP DP  RH WIND       PRES   REMARKS
ALAMOSA        PTCLDY    69  44  40 S7        30.46R
LA VETA PASS   CLEAR     63  34  34 E18G25    30.71S
SAGUACHE       PTCLDY    70  45  40 SE6       30.48R
$$

COZ035-036-038>040-230400-
...NORTHERN COLORADO FRONT RANGE...

CITY           SKY/WX    TMP DP  RH WIND       PRES   REMARKS
DENVER INTL AP PTCLDY    78  51  38 SE9       30.29R
DMNS CITY PARK   N/A     78  47  33 NW3       30.28R
AURORA         PTCLDY    76  50  39 E2        30.33R
FRONT RANGE AP NOT AVBL
ERIE MUNI ARPT PTCLDY    80  54  41 CALM      30.27R
BOULDER MUN AP PTCLDY    81  52  36 NW7       30.28S
CENTENNIAL     MOCLDY    79  42  26 CALM      30.34R
BROOMFIELD     PTCLDY    79  52  38 W9        30.32R
FORT COLLINS   PTCLDY    82  55  39 N6        30.26R
LONGMONT       PTCLDY    82  55  39 N5        30.28R
$$

COZ041-046-047-076>085-087-088-230400-
...PIKES PEAK/PALMER DIVIDE AND SOUTHERN FOOTHILLS...

CITY           SKY/WX    TMP DP  RH WIND       PRES   REMARKS
COLO. SPRINGS  PTCLDY    78  52  40 SE7       30.38R
A. F. ACADEMY  PTCLDY    71  51  50 NW7       30.40S
ELLICOTT       PTCLDY    72  55  55 S8        30.37R
FALCON         PTCLDY    72  49  44 CALM      30.44S
FORT CARSON    CLEAR     80  51  35 VRB6      30.35R
LIMON          PTCLDY    80  53  39 E12       30.32R
MONUMENT HILL  MOCLDY    70  48  46 S6        30.44S
TRINIDAD       CLEAR     82  44  26 SE10      30.33R
$$

COZ042>045-048>051-090-091-230400-
...NORTHEAST COLORADO...

CITY           SKY/WX    TMP DP  RH WIND       PRES   REMARKS
GREELEY ARPT   PTCLDY    79  55  44 E10       30.25R
AKRON          CLEAR     77  59  53 E9        30.27R
BURLINGTON     CLEAR     80  61  52 E10       30.24R
WRAY             N/A     83  62  48 E10       30.22R
STERLING       CLEAR     82  63  51 E6        30.21S
HOLYOKE        CLEAR     77  64  65 E7        30.23R
FORT MORGAN    CLEAR     77  58  51 E7        30.25S
$$

COZ086-089-092>099-230400-
...SOUTHEAST COLORADO...

CITY           SKY/WX    TMP DP  RH WIND       PRES   REMARKS
PUEBLO         CLEAR     83  55  38 SE6       30.24R
LA JUNTA       CLEAR     84  56  38 E8        30.20R
LAMAR          CLEAR     87  59  38 S18       30.16R
SPRINGFIELD      N/A     77  63  61 SE13      30.25R
$$


USA.gov is the U.S. government's official web portal to all federal, state and local government web resources and services.